Wind_Speed
98 96 93 92 91 91 90 89 88 86 84 82 80 78 78 77 76 74 72 70 70 69 67 65 63 62 61 61 60 59 58 55 52 48 46 43 41 39 38 37 36 37 39
83 82 81 80 80 82 84 85 85 85 85 84 84 82 81 81 80 78 76 74 72 72 72 69 67 65 63 61 60 60 59 58 55 52 49 46 43 41 39 37 37 37 38
69 69 69 70 71 72 74 76 78 80 81 82 83 85 85 84 83 82 80 79 76 74 75 74 72 70 67 63 62 60 58 58 57 55 52 49 46 44 41 39 38 38 38
67 66 64 64 65 66 68 69 70 72 75 78 81 85 87 87 87 86 85 83 81 79 77 77 77 75 73 69 65 63 60 57 55 55 53 51 49 46 44 41 39 38 39
66 64 62 60 60 61 63 66 67 67 69 72 76 81 86 89 91 91 89 87 85 83 80 79 79 79 77 73 70 67 66 63 57 55 51 50 50 49 46 43 41 40 39
61 59 58 56 56 56 58 61 65 68 67 68 70 76 82 88 92 94 93 91 90 88 85 82 80 80 80 77 74 71 70 68 63 58 54 50 49 50 49 46 44 42 40
56 54 53 52 52 53 54 55 59 65 68 68 68 70 75 83 90 95 96 95 93 91 89 86 82 80 80 79 77 75 73 71 68 63 59 55 51 49 50 48 46 44 43
51 50 48 48 47 48 50 52 54 58 65 69 69 68 70 74 83 90 96 98 96 94 93 90 86 82 79 78 79 77 76 75 72 68 64 60 56 51 49 49 48 46 44
48 47 46 45 44 44 44 46 49 52 56 64 70 70 69 70 73 81 90 97 98 97 96 93 90 85 81 77 77 77 76 78 76 72 68 64 61 57 53 49 48 47 46
50 49 47 46 44 43 42 42 44 48 51 56 64 70 71 70 69 73 81 90 97 99 98 95 93 89 85 80 76 76 75 77 78 76 72 67 64 61 59 54 49 48 47
54 53 51 49 48 46 44 43 41 43 46 50 56 65 72 72 71 70 73 83 92 97 99 97 94 92 89 84 80 76 73 75 78 78 75 70 67 65 62 58 54 50 49
55 56 55 53 51 48 46 45 43 42 42 46 50 58 67 73 74 71 69 74 85 94 99 99 96 93 92 88 83 79 75 71 74 77 77 73 70 66 64 61 57 53 50
57 57 56 55 53 50 48 46 45 43 42 43 46 52 60 69 74 73 70 68 75 87 96 100 100 97 94 91 86 81 79 72 71 75 77 76 72 68 65 63 60 56 53
61 60 58 56 54 52 49 47 45 43 41 41 43 48 54 63 71 74 72 68 68 76 89 98 102 100 98 95 91 85 81 77 72 72 75 76 74 70 66 63 61 59 56
65 64 61 58 55 52 49 46 44 42 40 39 41 45 49 56 65 72 73 71 66 67 79 92 101 102 100 98 95 89 83 78 75 72 73 75 74 71 68 65 61 60 58
70 68 64 58 53 50 47 44 42 39 37 37 38 41 46 51 59 67 72 72 67 64 67 80 95 102 101 98 95 91 87 82 78 76 74 74 74 72 69 67 63 60 57
73 67 59 50 43 39 39 38 39 36 33 33 35 37 42 47 53 61 68 71 68 62 60 67 82 97 100 97 93 92 89 86 81 78 76 75 74 72 70 68 66 63 60
70 60 48 36 27 20 20 24 29 29 28 29 31 34 38 43 48 55 63 68 68 64 58 59 71 85 96 95 91 90 89 87 85 81 78 75 74 73 70 68 67 65 63
63 49 36 24 18 10 4 9 15 19 22 24 27 30 34 39 44 49 57 63 65 64 59 56 62 74 86 89 86 85 87 88 86 84 81 76 74 73 71 69 67 65 64
57 40 27 22 20 14 7 2 5 10 15 19 23 27 30 35 39 44 51 57 61 61 60 56 57 66 78 83 82 81 83 86 85 84 83 79 76 74 71 70 67 65 64
53 34 21 17 17 16 11 7 2 4 10 15 19 24 27 31 35 39 45 51 55 56 57 56 56 63 74 81 81 79 79 82 84 83 82 81 78 75 73 71 69 66 65
52 33 18 11 11 12 8 5 2 2 6 11 17 22 25 29 32 35 40 45 49 50 52 53 54 61 72 81 82 80 78 80 82 81 80 80 80 77 74 72 69 67 66
55 37 20 9 4 4 3 4 3 1 5 10 16 21 25 28 31 33 36 39 42 43 45 47 51 58 70 84 84 80 78 79 80 81 80 78 78 76 74 72 70 68 67
61 44 28 16 7 4 5 6 6 3 4 10 16 21 25 28 30 32 33 35 36 37 38 40 44 52 66 83 90 83 77 76 77 80 80 77 76 75 73 71 69 67 67
66 53 36 24 16 11 9 8 7 4 4 10 17 22 26 29 30 31 32 32 32 33 34 35 38 45 58 77 93 92 82 76 76 78 79 76 74 72 71 69 67 66 65
69 61 47 32 23 17 12 9 7 4 4 9 16 22 27 29 30 31 30 29 29 29 30 31 34 39 48 65 86 95 91 82 78 77 77 74 70 69 69 68 64 63 62
Wind_Direction
287 285 282 279 276 272 269 266 263 259 255 251 248 243 240 239 239 239 239 238 237 233 231 231 231 233 234 234 232 231 231 228 224 225 227 228 229 229 228 229 230 230 230
288 284 281 278 274 271 268 265 262 258 255 251 247 243 239 237 236 236 236 236 236 234 231 230 230 230 231 231 231 231 232 231 226 223 224 226 228 228 227 228 229 230 229
291 287 282 278 273 268 264 261 259 255 252 248 245 241 238 235 234 234 233 233 233 233 231 229 228 229 229 229 228 229 231 231 228 224 222 224 226 227 227 228 230 230 229
297 292 287 281 276 269 263 258 255 253 249 245 241 239 237 234 231 231 231 231 231 230 230 229 228 228 228 227 227 227 227 229 228 227 224 222 224 226 227 227 229 230 229
299 295 290 284 279 273 265 258 252 250 247 244 240 236 234 232 230 228 228 229 228 228 228 227 227 227 228 228 227 226 226 227 228 227 225 224 223 224 226 227 228 229 230
301 296 291 286 281 276 270 262 253 248 245 243 239 235 232 230 228 227 226 226 226 226 226 225 226 227 228 228 227 226 225 226 226 226 225 226 225 223 224 226 228 229 230
305 301 296 290 283 278 272 267 258 249 244 241 238 235 232 230 228 226 225 224 224 224 224 223 223 225 227 228 227 226 224 225 225 225 225 226 227 226 224 225 227 229 229
311 307 302 296 289 281 274 269 264 255 247 242 238 234 231 231 228 226 225 223 222 222 222 222 221 222 224 227 227 226 225 224 224 225 225 225 227 228 227 226 227 227 230
316 312 307 301 295 287 279 272 265 260 251 244 239 234 230 229 229 227 225 223 221 220 220 220 220 219 221 223 225 226 226 224 223 223 224 224 225 228 229 229 228 228 230
318 314 310 305 299 292 285 278 270 262 255 247 241 235 231 228 227 228 226 223 221 219 218 218 219 218 219 220 223 224 225 224 223 222 223 223 223 225 228 230 230 230 231
317 313 309 304 300 294 287 281 275 267 257 250 242 237 232 228 226 226 227 225 222 220 217 216 216 217 217 218 220 222 223 224 223 222 222 222 222 224 226 229 230 232 233
316 312 308 303 298 294 287 281 275 270 261 252 244 237 232 228 225 224 224 226 223 220 218 216 214 215 217 217 219 220 221 222 223 222 221 221 222 223 224 226 229 231 234
316 311 307 302 297 292 287 281 275 269 263 254 245 238 232 227 224 222 221 224 225 222 219 216 214 214 215 216 217 218 220 220 221 222 221 221 221 222 223 225 227 229 232
317 312 307 301 295 290 285 280 274 268 262 255 247 238 232 227 223 221 219 220 223 224 220 217 215 214 214 215 216 218 219 219 220 221 222 222 222 222 222 224 225 228 231
320 314 308 300 293 287 282 277 271 266 260 254 247 239 231 226 222 219 218 217 219 223 222 218 216 215 214 215 217 218 218 218 219 220 222 223 223 223 222 223 224 226 229
322 316 310 302 292 283 277 272 267 263 257 251 246 238 230 225 221 218 216 216 216 219 222 220 218 216 214 215 217 218 219 219 219 220 221 223 224 224 223 222 223 224 226
327 322 317 309 298 284 273 266 262 258 253 248 242 236 229 223 219 216 215 214 214 215 218 220 220 217 214 214 216 217 218 219 219 219 220 222 223 224 223 221 221 223 225
334 332 329 326 317 298 274 261 256 251 246 242 237 232 227 221 217 215 213 212 213 214 215 218 220 218 215 213 214 216 217 219 218 218 219 220 222 223 223 222 221 222 225
343 344 350 1 9 5 313 255 248 242 237 234 230 227 223 218 215 213 211 211 211 213 214 216 219 217 214 212 211 212 215 218 219 218 218 219 220 222 223 222 222 222 224
353 359 16 39 47 47 36 352 256 236 229 225 222 220 217 214 211 209 209 209 210 212 214 216 218 215 212 209 209 209 211 214 217 218 219 219 220 221 222 223 222 223 224
360 7 30 62 74 63 54 50 49 224 221 216 213 212 210 207 205 205 205 206 208 212 215 217 218 215 211 207 205 206 208 210 213 216 217 218 220 221 222 222 223 223 224
5 8 23 62 93 87 67 43 31 216 210 204 204 203 202 198 197 198 200 203 206 210 214 217 218 215 210 206 202 201 204 206 209 212 214 217 219 220 221 222 222 223 224
9 9 13 29 80 93 37 360 352 271 203 196 197 196 194 191 191 193 194 197 202 207 213 217 218 216 210 206 200 197 199 203 206 208 211 214 216 218 220 221 222 222 223
14 14 14 13 6 347 342 340 338 302 211 194 192 191 189 187 187 189 191 194 199 204 209 214 217 216 211 206 201 196 195 198 203 206 208 210 213 215 217 219 220 221 223
17 18 18 17 12 3 354 348 333 303 224 198 192 189 186 185 186 187 189 191 195 201 206 211 214 214 212 207 205 201 195 195 198 204 206 207 209 212 215 216 217 219 221
20 22 22 20 18 15 12 4 349 324 243 205 195 190 187 186 187 188 189 190 194 199 205 209 211 210 209 208 208 207 204 200 199 201 204 206 207 210 212 213 213 215 218
Height
5625 5620 5615 5614 5614 5614 5616 5620 5625 5633 5640 5647 5656 5664 5672 5680 5689 5699 5708 5715 5723 5731 5738 5745 5752 5758 5763 5769 5776 5781 5787 5791 5797 5803 5809 5814 5819 5823 5827 5831 5835 5839 5844
5597 5591 5587 5584 5583 5583 5585 5588 5594 5601 5609 5618 5627 5637 5647 5657 5668 5678 5688 5697 5705 5714 5722 5730 5737 5745 5751 5757 5763 5769 5775 5781 5786 5792 5798 5804 5810 5815 5819 5824 5828 5832 5837
5572 5567 5562 5559 5557 5556 5557 5559 5563 5570 5578 5587 5598 5608 5620 5633 5645 5655 5666 5677 5686 5696 5705 5713 5722 5729 5737 5744 5750 5757 5763 5770 5775 5781 5787 5794 5801 5807 5812 5816 5821 5825 5829
5551 5545 5540 5537 5534 5532 5533 5535 5538 5543 5549 5558 5568 5579 5592 5606 5619 5631 5643 5654 5665 5676 5686 5696 5705 5713 5722 5730 5737 5745 5752 5759 5765 5771 5776 5783 5790 5797 5803 5808 5813 5818 5822
5530 5524 5519 5515 5512 5510 5509 5511 5515 5519 5525 5531 5541 5552 5564 5577 5592 5605 5618 5631 5643 5656 5667 5677 5687 5696 5705 5714 5723 5731 5740 5748 5755 5762 5768 5772 5779 5787 5794 5800 5806 5810 5815
5513 5505 5500 5496 5492 5490 5488 5488 5492 5496 5502 5508 5516 5526 5537 5549 5563 5577 5593 5607 5620 5633 5646 5658 5669 5678 5688 5698 5708 5717 5726 5735 5743 5751 5759 5765 5769 5776 5784 5791 5797 5803 5808
5497 5489 5483 5478 5474 5471 5469 5468 5469 5474 5480 5486 5495 5504 5514 5524 5535 5551 5566 5581 5596 5611 5625 5638 5650 5661 5671 5681 5692 5702 5712 5721 5731 5739 5748 5756 5761 5766 5773 5781 5788 5795 5800
5484 5476 5469 5463 5458 5455 5453 5451 5451 5453 5458 5464 5473 5484 5494 5503 5512 5526 5539 5555 5572 5588 5603 5617 5631 5643 5654 5664 5675 5686 5697 5707 5717 5727 5736 5745 5753 5757 5763 5770 5779 5785 5791
5473 5465 5458 5451 5445 5441 5438 5435 5434 5435 5439 5443 5450 5461 5472 5483 5493 5504 5515 5531 5547 5563 5580 5597 5612 5625 5637 5648 5659 5670 5681 5692 5703 5713 5724 5733 5742 5749 5755 5760 5768 5776 5782
5462 5454 5446 5439 5433 5428 5424 5421 5419 5418 5421 5425 5430 5439 5451 5462 5472 5484 5495 5508 5523 5540 5558 5576 5593 5607 5620 5632 5643 5655 5666 5678 5688 5699 5710 5721 5730 5738 5746 5753 5758 5766 5773
5450 5441 5433 5426 5419 5414 5410 5406 5404 5403 5404 5407 5412 5419 5430 5442 5453 5464 5475 5487 5502 5518 5536 5555 5573 5589 5602 5615 5628 5640 5652 5663 5674 5685 5697 5707 5718 5727 5735 5743 5750 5756 5763
5439 5428 5418 5410 5403 5398 5394 5391 5389 5387 5388 5390 5394 5400 5409 5422 5434 5447 5459 5467 5482 5498 5515 5533 5552 5569 5584 5597 5611 5624 5637 5649 5661 5671 5683 5694 5704 5714 5724 5732 5741 5747 5754
5426 5414 5403 5393 5385 5380 5376 5373 5372 5371 5372 5374 5377 5382 5390 5401 5414 5428 5442 5452 5462 5477 5494 5513 5531 5548 5565 5579 5594 5607 5622 5635 5647 5658 5669 5680 5691 5702 5712 5721 5731 5738 5746
5408 5395 5384 5374 5366 5360 5356 5354 5353 5354 5356 5358 5361 5366 5374 5383 5395 5409 5424 5437 5446 5458 5474 5493 5510 5528 5544 5560 5576 5592 5606 5620 5632 5644 5656 5667 5678 5690 5701 5711 5721 5729 5736
5387 5373 5361 5351 5343 5337 5334 5334 5334 5336 5339 5342 5345 5350 5358 5367 5378 5392 5407 5421 5433 5443 5457 5473 5490 5506 5524 5543 5560 5576 5591 5605 5618 5631 5642 5654 5666 5678 5690 5700 5710 5719 5726
5366 5349 5335 5324 5316 5312 5311 5313 5315 5320 5324 5327 5331 5336 5343 5352 5363 5376 5391 5406 5420 5431 5441 5456 5470 5488 5507 5526 5544 5561 5576 5591 5604 5617 5629 5641 5653 5665 5678 5689 5700 5709 5716
5345 5325 5309 5297 5291 5288 5290 5293 5298 5304 5310 5314 5319 5324 5330 5339 5349 5362 5376 5391 5406 5419 5432 5441 5453 5470 5490 5512 5529 5545 5561 5576 5590 5604 5616 5629 5641 5653 5665 5678 5688 5698 5706
5327 5307 5291 5280 5274 5273 5276 5280 5285 5292 5298 5303 5308 5313 5320 5328 5338 5350 5363 5379 5394 5409 5421 5429 5439 5455 5475 5496 5514 5531 5547 5562 5577 5591 5603 5616 5629 5641 5653 5665 5677 5687 5696
5316 5297 5284 5276 5272 5270 5271 5274 5278 5283 5290 5295 5300 5305 5311 5320 5330 5341 5353 5368 5383 5398 5410 5419 5428 5442 5462 5483 5501 5517 5533 5548 5563 5577 5590 5603 5616 5629 5641 5653 5665 5676 5686
5310 5295 5285 5279 5276 5274 5273 5275 5277 5280 5285 5289 5294 5299 5305 5313 5323 5333 5345 5358 5373 5387 5399 5410 5419 5431 5449 5468 5487 5504 5519 5534 5549 5564 5577 5590 5603 5616 5629 5642 5655 5665 5675
5309 5296 5288 5284 5281 5279 5277 5277 5278 5279 5282 5286 5290 5295 5301 5309 5318 5328 5339 5351 5364 5377 5389 5399 5408 5420 5435 5455 5474 5490 5506 5520 5535 5549 5563 5578 5592 5605 5616 5629 5641 5653 5664
5312 5300 5292 5288 5285 5282 5280 5280 5280 5280 5282 5285 5289 5294 5299 5306 5315 5324 5334 5345 5357 5368 5379 5388 5397 5408 5422 5441 5460 5476 5491 5506 5522 5538 5552 5564 5578 5591 5604 5617 5629 5641 5652
5317 5304 5296 5291 5288 5285 5284 5283 5283 5283 5283 5285 5289 5293 5298 5305 5313 5322 5331 5341 5351 5361 5371 5379 5388 5397 5409 5427 5447 5464 5477 5492 5508 5524 5538 5552 5565 5578 5592 5604 5616 5628 5639
5323 5309 5300 5295 5292 5289 5287 5286 5285 5285 5285 5286 5289 5293 5299 5305 5312 5320 5329 5338 5347 5356 5364 5373 5380 5389 5399 5415 5433 5449 5464 5479 5494 5510 5525 5540 5552 5566 5579 5591 5603 5615 5627
5332 5316 5306 5299 5295 5293 5290 5288 5287 5286 5286 5287 5290 5294 5299 5305 5312 5320 5328 5337 5345 5352 5359 5367 5374 5381 5390 5402 5418 5433 5449 5465 5482 5497 5513 5528 5541 5554 5566 5579 5591 5603 5614
5341 5325 5313 5304 5299 5295 5292 5290 5288 5287 5288 5289 5291 5295 5300 5306 5312 5320 5327 5335 5343 5349 5356 5363 5369 5375 5383 5392 5404 5418 5434 5452 5469 5486 5501 5517 5531 5543 5555 5567 5579 5591 5602